| time (UTC) | temp F | wind direction | speed MPH | gust MPH | rain 1hr in | rain 24hr in | rain mn in | humidity % | barometer mb |
| 20260510225408 | 78 | 107 | 2.0 | 3.0 | 0.00 | 0.01 | 0.01 | 65 | 1016.3 |
| 20260510224406 | 79 | 118 | 2.0 | 3.0 | 0.00 | 0.01 | 0.01 | 64 | 1016.5 |
| 20260510223406 | 79 | 87 | 3.0 | 3.0 | 0.00 | 0.01 | 0.01 | 63 | 1016.2 |
| 20260510222401 | 79 | 116 | 5.0 | 6.0 | 0.00 | 0.01 | 0.01 | 62 | 1015.8 |
| 20260510221359 | 79 | 102 | 2.0 | 3.0 | 0.00 | 0.01 | 0.01 | 61 | 1015.4 |
| 20260510220357 | 79 | 87 | 1.0 | 2.0 | 0.00 | 0.01 | 0.01 | 61 | 1015.2 |
| 20260510215356 | 79 | 57 | 0.0 | 1.0 | 0.00 | 0.01 | 0.01 | 61 | 1015.4 |
| 20260510214351 | 79 | 82 | 2.0 | 3.0 | 0.00 | 0.01 | 0.01 | 61 | 1015.6 |
| 20260510213350 | 79 | 61 | 2.0 | 3.0 | 0.00 | 0.01 | 0.01 | 60 | 1015.6 |
| 20260510212350 | 78 | 89 | 1.0 | 1.0 | 0.00 | 0.01 | 0.01 | 62 | 1015.5 |
| 20260510211349 | 77 | 129 | 2.0 | 2.0 | 0.00 | 0.01 | 0.01 | 61 | 1015.6 |
| 20260510210346 | 77 | 89 | 2.0 | 2.0 | 0.00 | 0.01 | 0.01 | 64 | 1015.5 |
| 20260510205346 | 77 | 53 | 1.0 | 1.0 | 0.00 | 0.01 | 0.01 | 65 | 1015.5 |
| 20260510204345 | 75 | 118 | 2.0 | 3.0 | 0.00 | 0.01 | 0.01 | 66 | 1015.3 |
| 20260510203344 | 74 | 86 | 2.0 | 2.0 | 0.00 | 0.01 | 0.01 | 70 | 1016.0 |
| 20260510202340 | 73 | 94 | 3.0 | 3.0 | 0.00 | 0.01 | 0.01 | 74 | 1016.4 |
| 20260510201340 | 75 | 97 | 2.0 | 3.0 | 0.00 | 0.01 | 0.01 | 72 | 1016.7 |
| 20260510200335 | 75 | 166 | 6.0 | 7.0 | 0.00 | 0.01 | 0.01 | 73 | 1016.9 |
| 20260510195333 | 75 | 138 | 5.0 | 7.0 | 0.00 | 0.01 | 0.01 | 73 | 1017.6 |
| 20260510194331 | 74 | 114 | 4.0 | 4.0 | 0.00 | 0.01 | 0.01 | 75 | 1017.5 |
| 20260510193327 | 78 | 132 | 7.0 | 10.0 | 0.00 | 0.01 | 0.01 | 72 | 1017.9 |
| 20260510192325 | 82 | 149 | 4.0 | 6.0 | 0.00 | 0.01 | 0.01 | 65 | 1017.3 |
| 20260510191323 | 83 | 109 | 2.0 | 3.0 | 0.00 | 0.01 | 0.01 | 61 | 1017.2 |
| 20260510190318 | 83 | 92 | 2.0 | 2.0 | 0.00 | 0.01 | 0.01 | 62 | 1017.0 |
| 20260510185318 | 83 | 85 | 3.0 | 3.0 | 0.00 | 0.01 | 0.01 | 62 | 1016.6 |
| 20260510184318 | 83 | 50 | 0.0 | 0.0 | 0.00 | 0.01 | 0.01 | 61 | 1016.5 |
| 20260510183314 | 85 | 54 | 1.0 | 2.0 | 0.00 | 0.01 | 0.01 | 59 | 1016.0 |
| 20260510182313 | 84 | 51 | 0.0 | 0.0 | 0.00 | 0.01 | 0.01 | 58 | 1016.0 |
| 20260510181311 | 85 | 70 | 2.0 | 2.0 | 0.00 | 0.01 | 0.01 | 57 | 1015.8 |
| 20260510180310 | 85 | 36 | 0.0 | 1.0 | 0.00 | 0.01 | 0.01 | 55 | 1015.7 |
| 20260510175309 | 86 | 41 | 1.0 | 1.0 | 0.00 | 0.01 | 0.01 | 54 | 1015.6 |
| 20260510174303 | 85 | 64 | 0.0 | 0.0 | 0.00 | 0.01 | 0.01 | 60 | 1015.5 |
| 20260510173300 | 85 | 6 | 2.0 | 3.0 | 0.00 | 0.01 | 0.01 | 57 | 1015.5 |
| 20260510172258 | 85 | 349 | 2.0 | 3.0 | 0.00 | 0.01 | 0.01 | 57 | 1015.3 |
| 20260510171257 | 84 | 55 | 1.0 | 1.0 | 0.00 | 0.01 | 0.01 | 60 | 1015.2 |
| 20260510170256 | 83 | 47 | 4.0 | 4.0 | 0.00 | 0.01 | 0.01 | 59 | 1014.7 |
| 20260510165254 | 82 | 14 | 1.0 | 1.0 | 0.00 | 0.01 | 0.01 | 60 | 1014.8 |
| 20260510164255 | 82 | 45 | 2.0 | 3.0 | 0.00 | 0.01 | 0.01 | 61 | 1014.6 |
| 20260510163250 | 81 | 39 | 1.0 | 2.0 | 0.00 | 0.01 | 0.01 | 65 | 1014.6 |
| 20260510162248 | 80 | 4 | 2.0 | 3.0 | 0.00 | 0.01 | 0.01 | 65 | 1014.5 |
| 20260510161245 | 80 | 319 | 2.0 | 2.0 | 0.00 | 0.01 | 0.01 | 66 | 1014.2 |
| 20260510160244 | 80 | 3 | 0.0 | 1.0 | 0.00 | 0.01 | 0.01 | 68 | 1014.5 |
| 20260510155242 | 79 | 337 | 4.0 | 6.0 | 0.00 | 0.01 | 0.01 | 66 | 1014.4 |
| 20260510154239 | 79 | 339 | 2.0 | 3.0 | 0.00 | 0.01 | 0.01 | 68 | 1014.5 |
| 20260510153236 | 77 | 10 | 2.0 | 2.0 | 0.00 | 0.01 | 0.01 | 71 | 1014.4 |
| 20260510152235 | 77 | 11 | 2.0 | 2.0 | 0.00 | 0.01 | 0.01 | 71 | 1014.5 |
| 20260510151231 | 75 | 333 | 2.0 | 3.0 | 0.00 | 0.01 | 0.01 | 73 | 1014.5 |
| 20260510150228 | 75 | 46 | 1.0 | 2.0 | 0.00 | 0.01 | 0.01 | 75 | 1014.6 |
| 20260510145226 | 74 | 21 | 1.0 | 1.0 | 0.00 | 0.01 | 0.01 | 77 | 1014.5 |
| 20260510144226 | 74 | 42 | 1.0 | 1.0 | 0.00 | 0.01 | 0.01 | 81 | 1014.8 |
| 20260510143222 | 73 | 356 | 1.0 | 2.0 | 0.00 | 0.01 | 0.01 | 81 | 1014.8 |
| 20260510142221 | 72 | 10 | 1.0 | 2.0 | 0.00 | 0.01 | 0.01 | 82 | 1015.0 |
| 20260510141217 | 71 | 41 | 0.0 | 0.0 | 0.00 | 0.01 | 0.01 | 83 | 1015.2 |
| 20260510140213 | 71 | 358 | 0.0 | 1.0 | 0.00 | 0.01 | 0.01 | 83 | 1015.2 |
| 20260510135210 | 70 | 21 | 1.0 | 1.0 | 0.00 | 0.01 | 0.01 | 85 | 1015.3 |
| 20260510134205 | 69 | 44 | 0.0 | 0.0 | 0.00 | 0.01 | 0.01 | 87 | 1015.7 |
| 20260510133202 | 68 | 38 | 0.0 | 0.0 | 0.00 | 0.01 | 0.01 | 88 | 1015.5 |
| 20260510132202 | 67 | 41 | 2.0 | 2.0 | 0.00 | 0.01 | 0.01 | 90 | 1015.3 |
| 20260510131157 | 66 | 64 | 1.0 | 1.0 | 0.00 | 0.01 | 0.01 | 93 | 1015.0 |
| 20260510130156 | 65 | 43 | 0.0 | 0.0 | 0.00 | 0.01 | 0.01 | 94 | 1014.9 |
| 20260510125154 | 64 | 48 | 0.0 | 1.0 | 0.00 | 0.01 | 0.01 | 94 | 1015.1 |
| 20260510124154 | 64 | 0 | 0.0 | 1.0 | 0.00 | 0.01 | 0.01 | 96 | 1015.3 |
| 20260510123152 | 64 | 60 | 0.0 | 0.0 | 0.00 | 0.01 | 0.01 | 97 | 1015.3 |
| 20260510122150 | 64 | 74 | 1.0 | 1.0 | 0.00 | 0.01 | 0.01 | 97 | 1015.5 |
| 20260510121150 | 64 | 63 | 2.0 | 3.0 | 0.00 | 0.01 | 0.01 | 97 | 1015.6 |
| 20260510120149 | 64 | 87 | 1.0 | 2.0 | 0.00 | 0.01 | 0.01 | 97 | 1015.9 |
| 20260510115150 | 64 | 83 | 1.0 | 2.0 | 0.00 | 0.01 | 0.01 | 97 | 1016.4 |
| 20260510114148 | 65 | 115 | 3.0 | 4.0 | 0.00 | 0.01 | 0.01 | 96 | 1016.9 |
| 20260510113146 | 66 | 89 | 2.0 | 2.0 | 0.05 | 0.01 | 0.01 | 94 | 1017.3 |
| 20260510112146 | 69 | 131 | 6.0 | 8.0 | 0.00 | 0.00 | 0.00 | 88 | 1017.2 |
| 20260510111144 | 69 | 103 | 2.0 | 2.0 | 0.00 | 0.00 | 0.00 | 94 | 1016.9 |
| 20260510110143 | 68 | 66 | 0.0 | 0.0 | 0.00 | 0.00 | 0.00 | 96 | 1015.8 |
| 20260510105138 | 68 | 68 | 0.0 | 0.0 | 0.00 | 0.00 | 0.00 | 96 | 1015.5 |
| 20260510104137 | 68 | 64 | 1.0 | 1.0 | 0.00 | 0.00 | 0.00 | 96 | 1015.6 |
| 20260510103137 | 68 | 74 | 1.0 | 1.0 | 0.00 | 0.00 | 0.00 | 96 | 1015.6 |
| 20260510102134 | 67 | 108 | 2.0 | 2.0 | 0.00 | 0.00 | 0.00 | 97 | 1015.0 |
| 20260510101129 | 67 | 113 | 4.0 | 6.0 | 0.00 | 0.00 | 0.00 | 97 | 1014.9 |
| 20260510100128 | 67 | 54 | 0.0 | 0.0 | 0.00 | 0.00 | 0.00 | 97 | 1013.8 |
| 20260510095124 | 67 | 45 | 0.0 | 0.0 | 0.00 | 0.00 | 0.00 | 97 | 1014.0 |
| 20260510094124 | 67 | 48 | 0.0 | 0.0 | 0.00 | 0.00 | 0.00 | 97 | 1014.0 |
| 20260510093124 | 67 | 56 | 0.0 | 0.0 | 0.00 | 0.00 | 0.00 | 97 | 1013.7 |
| 20260510092121 | 67 | 59 | 0.0 | 0.0 | 0.00 | 0.00 | 0.00 | 97 | 1013.3 |
| 20260510091119 | 67 | 57 | 0.0 | 0.0 | 0.00 | 0.00 | 0.00 | 97 | 1013.2 |
| 20260510090118 | 68 | 55 | 0.0 | 0.0 | 0.00 | 0.00 | 0.00 | 97 | 1012.8 |
| 20260510085115 | 68 | 51 | 0.0 | 0.0 | 0.00 | 0.00 | 0.00 | 97 | 1012.2 |
| 20260510084114 | 68 | 42 | 0.0 | 0.0 | 0.00 | 0.00 | 0.00 | 96 | 1012.5 |
| 20260510083113 | 68 | 52 | 0.0 | 0.0 | 0.00 | 0.00 | 0.00 | 95 | 1013.0 |
| 20260510082111 | 69 | 53 | 0.0 | 0.0 | 0.00 | 0.00 | 0.00 | 95 | 1013.1 |
| 20260510081108 | 68 | 63 | 1.0 | 1.0 | 0.00 | 0.00 | 0.00 | 95 | 1012.6 |
| 20260510080104 | 69 | 58 | 0.0 | 0.0 | 0.00 | 0.00 | 0.00 | 95 | 1012.2 |
| 20260510075104 | 69 | 48 | 0.0 | 1.0 | 0.00 | 0.00 | 0.00 | 94 | 1010.9 |
| 20260510074102 | 69 | 36 | 4.0 | 6.0 | 0.00 | 0.00 | 0.00 | 94 | 1010.9 |
| 20260510073102 | 69 | 40 | 0.0 | 0.0 | 0.00 | 0.00 | 0.00 | 94 | 1010.9 |
| 20260510072100 | 69 | 35 | 2.0 | 3.0 | 0.00 | 0.00 | 0.00 | 94 | 1010.8 |
| 20260510071100 | 69 | 45 | 0.0 | 1.0 | 0.00 | 0.00 | 0.00 | 94 | 1010.6 |
| 20260510070100 | 69 | 37 | 1.0 | 1.0 | 0.00 | 0.00 | 0.00 | 93 | 1010.8 |
| 20260510065058 | 70 | 43 | 0.0 | 0.0 | 0.00 | 0.00 | 0.00 | 93 | 1011.4 |
| 20260510064058 | 70 | 53 | 0.0 | 0.0 | 0.00 | 0.00 | 0.00 | 92 | 1011.9 |
| 20260510063057 | 70 | 50 | 0.0 | 0.0 | 0.00 | 0.00 | 0.00 | 92 | 1011.6 |
| 20260510062054 | 70 | 47 | 0.0 | 0.0 | 0.00 | 0.00 | 0.00 | 92 | 1011.7 |
| 20260510061054 | 71 | 52 | 0.0 | 0.0 | 0.00 | 0.00 | 0.00 | 91 | 1011.4 |
| 20260510060052 | 71 | 52 | 0.0 | 1.0 | 0.00 | 0.00 | 0.00 | 90 | 1011.4 |
| 20260510055053 | 71 | 55 | 1.0 | 2.0 | 0.00 | 0.00 | 0.00 | 90 | 1011.3 |
| 20260510054049 | 72 | 42 | 1.0 | 1.0 | 0.00 | 0.00 | 0.00 | 90 | 1011.2 |
| 20260510053046 | 72 | 13 | 1.0 | 2.0 | 0.00 | 0.00 | 0.00 | 90 | 1011.3 |
| 20260510052044 | 72 | 52 | 0.0 | 0.0 | 0.00 | 0.00 | 0.00 | 90 | 1011.1 |
| 20260510051042 | 73 | 59 | 0.0 | 0.0 | 0.00 | 0.00 | 0.00 | 90 | 1011.2 |
| 20260510050042 | 73 | 46 | 0.0 | 0.0 | 0.00 | 0.00 | 0.00 | 91 | 1011.1 |
| 20260510045041 | 73 | 46 | 1.0 | 1.0 | 0.00 | 0.00 | 0.00 | 90 | 1010.9 |
| 20260510044042 | 73 | 50 | 1.0 | 2.0 | 0.00 | 0.00 | 0.00 | 90 | 1010.7 |
| 20260510043039 | 74 | 355 | 1.0 | 1.0 | 0.00 | 0.00 | 0.00 | 92 | 1011.0 |
| 20260510042033 | 74 | 46 | 0.0 | 0.0 | 0.00 | 0.00 | 0.00 | 92 | 1011.2 |
| 20260510041028 | 75 | 46 | 0.0 | 0.0 | 0.00 | 0.00 | 0.00 | 92 | 1011.4 |
| 20260510040026 | 75 | 12 | 3.0 | 4.0 | 0.00 | 0.00 | 0.00 | 92 | 1011.0 |
| 20260510035022 | 75 | 47 | 0.0 | 0.0 | 0.00 | 0.00 | 0.00 | 91 | 1011.3 |
| 20260510034017 | 76 | 14 | 1.0 | 2.0 | 0.00 | 0.00 | 0.00 | 91 | 1011.1 |
| 20260510033018 | 76 | 49 | 0.0 | 0.0 | 0.00 | 0.00 | 0.00 | 91 | 1011.1 |
| 20260510032014 | 76 | 35 | 0.0 | 1.0 | 0.00 | 0.00 | 0.00 | 90 | 1011.1 |
| 20260510031011 | 77 | 12 | 1.0 | 1.0 | 0.00 | 0.00 | 0.00 | 90 | 1011.0 |
| 20260510030011 | 77 | 45 | 0.0 | 0.0 | 0.00 | 0.00 | 0.00 | 89 | 1010.7 |
| 20260510025005 | 77 | 74 | 1.0 | 2.0 | 0.00 | 0.00 | 0.00 | 88 | 1010.4 |
| 20260510024004 | 77 | 41 | 1.0 | 1.0 | 0.00 | 0.00 | 0.00 | 88 | 1010.3 |
| 20260510023003 | 78 | 55 | 0.0 | 0.0 | 0.00 | 0.00 | 0.00 | 86 | 1010.4 |
| 20260510022001 | 78 | 52 | 0.0 | 1.0 | 0.00 | 0.00 | 0.00 | 86 | 1010.2 |
| 20260510021002 | 78 | 48 | 0.0 | 0.0 | 0.00 | 0.00 | 0.00 | 85 | 1010.1 |
| 20260510015958 | 79 | 62 | 0.0 | 0.0 | 0.00 | 0.00 | 0.00 | 84 | 1010.0 |
| 20260510014955 | 79 | 63 | 0.0 | 1.0 | 0.00 | 0.00 | 0.00 | 83 | 1010.0 |
| 20260510013955 | 79 | 53 | 0.0 | 1.0 | 0.00 | 0.00 | 0.00 | 82 | 1009.8 |
| 20260510012952 | 80 | 60 | 1.0 | 1.0 | 0.00 | 0.00 | 0.00 | 80 | 1009.7 |
| 20260510011948 | 81 | 45 | 0.0 | 0.0 | 0.00 | 0.00 | 0.00 | 78 | 1009.4 |
| 20260510010945 | 82 | 66 | 0.0 | 0.0 | 0.00 | 0.00 | 0.00 | 76 | 1009.3 |
| 20260510005945 | 82 | 55 | 0.0 | 0.0 | 0.00 | 0.00 | 0.00 | 72 | 1009.1 |
| 20260510004945 | 82 | 46 | 0.0 | 0.0 | 0.00 | 0.00 | 0.00 | 71 | 1008.9 |
| 20260510003940 | 83 | 65 | 1.0 | 2.0 | 0.00 | 0.00 | 0.00 | 71 | 1009.2 |
| 20260510002936 | 83 | 49 | 0.0 | 0.0 | 0.00 | 0.00 | 0.00 | 70 | 1009.1 |
| 20260510001935 | 84 | 45 | 0.0 | 0.0 | 0.00 | 0.00 | 0.00 | 70 | 1008.7 |
| 20260510000930 | 84 | 56 | 0.0 | 1.0 | 0.00 | 0.00 | 0.00 | 69 | 1008.9 |
| 20260509235928 | 84 | 52 | 0.0 | 0.0 | 0.00 | 0.00 | 0.00 | 68 | 1008.6 |
| 20260509234927 | 84 | 58 | 0.0 | 1.0 | 0.00 | 0.00 | 0.00 | 68 | 1008.5 |
| 20260509233923 | 85 | 70 | 0.0 | 0.0 | 0.00 | 0.00 | 0.00 | 67 | 1008.3 |
| 20260509232922 | 84 | 46 | 0.0 | 0.0 | 0.00 | 0.00 | 0.00 | 67 | 1008.3 |
| 20260509231921 | 84 | 47 | 0.0 | 0.0 | 0.00 | 0.00 | 0.00 | 69 | 1008.1 |
| 20260509230916 | 84 | 81 | 1.0 | 1.0 | 0.00 | 0.00 | 0.00 | 68 | 1008.1 |